Date,TemperatureHighF,TemperatureAvgF,TemperatureLowF,DewpointHighF,DewpointAvgF,DewpointLowF,HumidityHigh,HumidityAvg,HumidityLow,PressureMaxIn,PressureMinIn,WindSpeedMaxMPH,WindSpeedAvgMPH,GustSpeedMaxMPH,PrecipitationSumIn
2013-4-1,87.3,71.5,57.6,60.7,53.8,42.6,90,60,21,30.04,29.87,14,4,17,0.00
2013-4-2,77.4,66.9,51.1,63.9,59.2,48.4,93,78,52,29.97,29.82,37,7,37,1.39
2013-4-3,54.7,50.0,46.6,53.6,48.8,45.2,97,96,92,30.13,29.84,11,5,16,0.75
2013-4-4,63.1,46.1,29.5,45.2,34.7,27.2,95,69,35,30.20,30.08,13,5,34,0.00
2013-4-5,77.4,55.7,36.7,45.4,35.2,22.2,91,55,13,30.25,30.03,9,3,9,0.00
2013-4-6,81.9,65.8,51.3,52.4,45.7,40.8,83,52,26,30.04,29.83,18,7,19,0.00
2013-4-7,83.8,68.8,60.8,59.1,55.8,51.7,81,66,34,29.90,29.73,15,7,19,0.00
2013-4-8,77.5,68.9,65.5,68.6,61.2,56.6,90,77,66,29.80,29.65,15,7,22,0.02
2013-4-9,88.3,74.3,68.5,65.4,62.2,56.6,86,68,35,29.69,29.56,18,10,24,0.00
2013-4-10,72.7,63.0,46.0,65.5,51.4,37.5,88,72,47,29.94,29.61,22,7,22,0.14
2013-4-11,71.8,54.0,46.0,62.3,45.2,37.5,72,72,72,29.95,29.77,8,4,10,0.02
2013-4-12,82.8,63.3,45.7,42.7,28.9,12.2,72,37,10,29.98,29.83,12,5,14,0.49
2013-4-13,79.5,65.1,52.3,55.0,42.8,20.5,84,48,11,29.94,29.76,54,5,54,0.00
2013-4-14,93.0,73.4,58.1,60.2,50.4,30.0,84,52,10,29.81,29.58,34,6,34,0.00
2013-4-15,92.7,78.2,69.1,64.2,56.9,27.8,84,54,10,29.78,29.66,16,8,17,0.07
2013-4-16,88.9,76.3,66.9,66.6,59.7,54.8,82,59,32,29.86,29.77,18,9,20,0.00
2013-4-17,84.7,75.7,72.0,70.1,65.9,59.2,92,73,43,29.86,29.65,20,9,22,0.00
2013-4-18,74.7,61.7,49.1,69.4,45.6,26.7,87,59,25,30.10,29.63,16,7,17,0.02
2013-4-19,70.7,55.4,39.9,28.5,14.7,-0.9,60,26,10,30.28,30.08,11,4,12,0.00
2013-4-20,75.2,59.4,43.9,37.0,15.8,2.8,47,21,10,30.20,29.97,17,6,19,0.00
2013-4-21,82.2,65.2,51.3,51.0,41.8,31.9,72,47,17,30.13,29.97,17,7,17,0.00
2013-4-22,86.5,70.6,54.7,55.9,49.6,42.0,88,53,21,30.07,29.85,14,6,16,0.00
2013-4-23,77.0,64.5,49.5,59.6,50.9,34.8,80,62,39,30.11,29.81,14,5,14,0.00
2013-4-24,67.5,52.6,43.2,36.3,24.5,7.5,71,39,10,30.24,30.11,9,4,13,0.00
2013-4-25,67.3,59.7,53.6,34.5,29.2,17.9,47,33,15,30.30,30.15,10,4,11,0.00
2013-4-26,81.9,68.1,58.6,67.3,57.5,27.4,95,70,30,30.15,30.00,13,5,14,0.00
2013-4-27,86.5,74.6,67.5,72.0,62.6,51.5,88,69,30,30.07,29.90,50,14,50,0.02
2013-4-28,88.0,74.2,62.6,65.7,54.1,38.2,96,58,18,30.02,29.83,10,4,14,0.00
2013-4-29,88.3,73.8,65.5,64.8,56.8,40.5,89,61,19,29.92,29.76,19,6,24,0.00
2013-4-30,93.9,73.9,63.3,64.0,57.0,45.1,90,61,26,29.82,29.70,11,4,13,0.00